Regional Weather Roundup
Issued by NWS

Home | Current Version | Previous Version | Graphics & Text | Print | Product List | Glossary On
Versions: 1 2 3 4 5 6 7 8 9 10 11 12 13 14 15 16 17 18 19 20 21 22 23 24 25 26 27 28 29 30 31 32 33 34 35 36 37 38 39 40 41 42 43 44 45 46 47 48 49 50
000
ASUS43 KFSD 311602
RWRSD

WEATHER ROUNDUP FOR SOUTH DAKOTA
NATIONAL WEATHER SERVICE SIOUX FALLS SD
1100 AM CDT THU JUL 31 2014

NOTE: "FAIR" INDICATES FEW OR NO CLOUDS BELOW 12,000 FEET WITH NO
SIGNIFICANT WEATHER AND/OR OBSTRUCTIONS TO VISIBILITY.


SDZ001>005-009-010-012>017-311700-
NORTHWEST AND NORTH CENTRAL SOUTH DAKOTA

CITY           SKY/WX    TMP DP  RH WIND       PRES   REMARKS
BUFFALO          N/A     77  50  38 VRB3      30.09F
FAITH            N/A     78  53  41 VRB5      30.12F
MOBRIDGE       SUNNY     75  57  53 VRB3      30.07F
$$

SDZ012>016-024>037-041>051-057-063-072>074-311700-
SOUTHWEST AND SOUTH CENTRAL SOUTH DAKOTA

CITY           SKY/WX    TMP DP  RH WIND       PRES   REMARKS
RAPID CTY ARPT SUNNY     78  52  40 NE9       30.19R
PIERRE         SUNNY     75  57  53 SE5       30.09F
CUSTER         SUNNY     72  40  31 VRB7      30.31R
ELLSWORTH AFB  SUNNY     77  53  44 N9        30.19S
PHILIP         SUNNY     82  54  37 N9        30.12S
PINE RIDGE     SUNNY     73  56  54 VRB5      30.19S
WINNER         FAIR      76  57  51 N10       30.10R
$$

SDZ004>011-016>023-039-040-311700-
NORTHEAST SOUTH DAKOTA

CITY           SKY/WX    TMP DP  RH WIND       PRES   REMARKS
ABERDEEN       SUNNY     77  55  46 CALM      30.08S
WATERTOWN      SUNNY     76  51  41 VRB6      30.09R
SISSETON         N/A     77  61  57 N7        30.06S
$$

SDZ017-020-022-023-036>040-048>070-311700-
SOUTHEAST SOUTH DAKOTA

CITY           SKY/WX    TMP DP  RH WIND       PRES   REMARKS
SIOUX FALLS    MOSUNNY   74  59  59 CALM      30.09S
HURON          MOSUNNY   74  60  61 CALM      30.08S
CHAMBERLAIN    SUNNY     78  58  49 E8        30.08S
MITCHELL       MOSUNNY   74  64  71 E6        30.08S
YANKTON        PTSUNNY   68  61  77 E7        30.09S
$$

ABBREVIATIONS USED IN REMARKS
   TC - TEMPERATURE IN CELSIUS
  WCI - WIND CHILL INDEX
   HX - HEAT INDEX
  VSB - VISIBILITY



USA.gov is the U.S. government's official web portal to all federal, state and local government web resources and services.